Herbert Island, British Columbia

9:22 AM PST on December 15, 2017 (GMT -0800)
Herbert Island

Weather History for CWLP - March, 2013

Change the Weather History Date:

Saturday, March 9, 2013

  Actual Average Record
Temperature  
Mean Temperature 44 °F -  
Max Temperature 46 °F - - ()
Min Temperature 41 °F - - ()
Degree Days  
Heating Degree Days 22    
Moisture  
Dew Point 38 °F    
Average Humidity 81    
Maximum Humidity 90    
Minimum Humidity 62    
Precipitation  
Precipitation 0.00 in - - ()
Sea Level Pressure  
Sea Level Pressure 30.37 in    
Wind  
Wind Speed 7 mph ()    
Max Wind Speed 16 mph    
Max Gust Speed -    
T = Trace of Precipitation, MM = Missing Value Source: Averaged Metar Reports

Daily Weather History Graph

Daily Weather History Graph

Search for Another Location

Airport or City:

Trip Planner

Search our weather history database for the weather conditions in past years. The results will help you decide how hot, cold, wet, or windy it might be!

Date:

Astronomy

Mar. 09, 2013 Rise Set
Actual Time 6:56 AM PST 6:25 PM PST
Civil Twilight 6:23 AM PST 6:58 PM PST
Nautical Twilight 5:45 AM PST 7:37 PM PST
Astronomical Twilight 5:06 AM PST 8:16 PM PST
Moon 5:35 AM PST (3/9) 4:27 PM PST (3/9)
Length of Visible Light 12h 34m
Length of Day
11h 29m
Waning Crescent, 5% of the Moon is Illuminated
Mar 9
Waning Crescent
Mar 11
New
Mar 19
First Quarter
Mar 27
Full
Apr 2
Last Quarter

Hourly Weather History & Observations

Time (PST) Temp. Windchill Dew Point Humidity Pressure Visibility Wind Dir Wind Speed Gust Speed Precip Events Conditions
12:00 AM 42.3 °F 38.6 °F 39.2 °F 89% 30.24 in - West 5.8 mph - N/A   Unknown
1:00 AM 42.1 °F 39.2 °F 39.0 °F 89% 30.25 in - WNW 4.6 mph - N/A   Unknown
2:00 AM 41.9 °F 40.0 °F 39.0 °F 90% 30.26 in - NE 3.5 mph - N/A   Unknown
3:00 AM 41.9 °F - 38.8 °F 89% 30.28 in - NW 2.3 mph - N/A   Unknown
4:00 AM 42 °F - 39 °F 85% 30.29 in - East 4.6 mph - -  
4:00 AM 41.7 °F 38.8 °F 39.0 °F 90% 30.29 in - East 4.6 mph - N/A   Unknown
5:00 AM 42.1 °F 36.6 °F 39.4 °F 90% 30.29 in - ESE 9.2 mph - N/A   Unknown
6:00 AM 42.1 °F 35.2 °F 38.1 °F 86% 30.30 in - ESE 12.7 mph - N/A   Unknown
7:00 AM 42.4 °F 35.7 °F 38.3 °F 85% 30.30 in - South 12.7 mph - N/A   Unknown
8:00 AM 41.9 °F 35.0 °F 37.4 °F 84% 30.32 in - SSE 12.7 mph - N/A   Unknown
9:00 AM 41.7 °F 33.7 °F 37.2 °F 84% 30.34 in - SE 16.1 mph - N/A   Unknown
10:00 AM 42 °F - 38 °F 80% 30.35 in - ESE 15.0 mph - -  
11:00 AM 42.8 °F 35.4 °F 38.8 °F 86% 30.36 in - ESE 15.0 mph - N/A   Unknown
12:00 PM 44.6 °F 39.7 °F 37.2 °F 75% 30.38 in - SE 9.2 mph - N/A   Unknown
1:00 PM 43.9 °F 37.2 °F 38.3 °F 81% 30.38 in - ESE 13.8 mph - N/A   Unknown
2:00 PM 44.6 °F 38.4 °F 38.8 °F 80% 30.38 in - ESE 12.7 mph - N/A   Unknown
3:00 PM 45.0 °F 39.3 °F 40.1 °F 83% 30.39 in - ESE 11.5 mph - N/A   Unknown
4:00 PM 46 °F - 37 °F 62% 30.41 in - SSE 11.5 mph - -  
4:00 PM 46.2 °F 40.8 °F 37.2 °F 71% 30.41 in - SSE 11.5 mph - N/A   Unknown
5:00 PM 45.5 °F 44.2 °F 39.4 °F 79% 30.43 in - SSW 3.5 mph - N/A   Unknown
6:00 PM 44.8 °F - 37.9 °F 77% 30.44 in - SE 2.3 mph - N/A   Unknown
7:00 PM 44.1 °F 42.5 °F 37.9 °F 79% 30.46 in - SE 3.5 mph - N/A   Unknown
8:00 PM 44.1 °F 39.5 °F 37.9 °F 79% 30.47 in - ESE 8.1 mph - N/A   Unknown
9:00 PM 44.4 °F 39.5 °F 36.9 °F 75% 30.48 in - South 9.2 mph - N/A   Unknown
10:00 PM 44 °F - 37 °F 70% 30.48 in - SSE 6.9 mph - -  
10:00 PM 44.2 °F 40.3 °F 37.4 °F 77% 30.48 in - SSE 6.9 mph - N/A   Unknown
11:00 PM 44.1 °F 38.6 °F 36.7 °F 75% 30.48 in - SE 10.4 mph - N/A   Unknown